1300841427854,0.000144360
1300841487854,0.000144008
1300841547854,0.000142963
1300841607854,0.000143302
1300841667854,0.000143447
1300845027866,0.000141999
1300845087866,0.000143027
1300845147866,0.000143863
1300845207866,0.000144793
1300845267866,0.000143779
1300848627878,0.000142998
1300848687878,0.000142555
1300848747878,0.000143431
1300848807878,0.000144135
1300848867878,0.000141946
1300852227890,0.000141849
1300852287890,0.000141785
1300852347890,0.000142003
1300852407890,0.000141954
1300852467890,0.000140606
1300855827902,0.000143902
1300855887902,0.000143181
1300855947902,0.000142869
1300856007902,0.000142101
1300856067902,0.000141747
1300859427914,0.000143079
1300859487914,0.000142398
1300859547914,0.000142357
1300859607914,0.000142772
1300859667914,0.000142784
1300877427970,0.000139543
1300877487970,0.000139531
1300877547970,0.000137723
1300877607970,0.000138943
1300877667970,0.000138167
1300881027982,0.000138489
1300881087982,0.000139495
1300881147982,0.000138608
1300881207982,0.000139301
1300881267982,0.000140002
1300884627994,0.000139459
1300884687994,0.000140414
1300884747994,0.000141865
1300884807994,0.000141473
1300884867994,0.000140745
1300888228006,0.000143414
1300888288006,0.000141938
1300888348006,0.000140538
1300888408006,0.000140565
1300888468006,0.000140049
1300891828017,0.000140796
1300891888017,0.000141738
1300891948017,0.000140693
1300892008017,0.000140904
1300892068017,0.000140509
1300895428029,0.000142448
1300895488029,0.000141768
1300895548029,0.000142296
1300895608029,0.000143090
1300895668029,0.000142969
1300899028041,0.000143847
1300899088041,0.000144500
1300899148041,0.000143305
1300899208041,0.000144364
1300899268041,0.000142812
1300899328041,0.000143618
1300899388041,0.000142947
1300899448041,0.000143968
1300899508041,0.000143384
1300899568041,0.000143591
1300899628052,0.000144640
1300899688052,0.000144371
1300899748052,0.000143977
1300899808052,0.000144619
1300899868052,0.000145345
1300899928052,0.000144993
1300899988052,0.000144418
1300900048052,0.000146945
1300900108052,0.000151059
1300900168052,0.000147605
1300900228052,0.000145368
1300900288052,0.000146087
1300900348052,0.000145515
1300900408052,0.000147089
1300900468052,0.000146808
1300900528052,0.000146088
1300900588052,0.000145959
1300900648052,0.000146378
1300900708052,0.000146317
1300900768052,0.000146243
1300900828052,0.000145544
1300900888052,0.000145141
1300900948052,0.000144361
1300901008052,0.000144169
1300901068052,0.000146100
1300901128052,0.000145521
1300901188052,0.000145641
1300901248052,0.000146455
1300901308052,0.000145817
1300901368052,0.000144730
1300901428052,0.000145997
1300901488052,0.000145235
1300901548052,0.000145100
1300901608052,0.000145403
1300901668052,0.000145061
1300901728052,0.000145054
1300901788052,0.000145113
1300901848052,0.000144914
1300901908052,0.000145363
1300901968052,0.000144043
1300902028052,0.000144831
1300902088052,0.000142956
1300902148052,0.000143824
1300902208052,0.000143699
1300902268052,0.000143672
1300902328052,0.000144623
1300902388052,0.000143860
1300902448052,0.000143847
1300902508052,0.000143703
1300902568052,0.000143382
1300902628052,0.000144458
1300902688052,0.000144169
1300902748052,0.000143872
1300902808052,0.000143292
1300902868052,0.000143557
1300902928052,0.000142084
1300902988052,0.000144429
1300903048052,0.000143078
1300903108052,0.000142777
1300903168052,0.000143409
1300903228064,0.000143929
1300903288064,0.000144707
1300903348064,0.000144170
1300903408064,0.000144338
1300903468064,0.000143444
1300903528064,0.000144264
1300903588064,0.000143388
1300903648064,0.000142630
1300903708064,0.000142790
1300903768064,0.000142599
1300903828064,0.000143990
1300903888064,0.000144239
1300903948064,0.000142483
1300904008064,0.000144136
1300904068064,0.000143567
1300904128064,0.000143625
1300904188064,0.000144027
1300904248064,0.000143077
1300904308064,0.000143637
1300904368064,0.000144205
1300904428064,0.000143931
1300904488064,0.000145797
1300904548064,0.000143681
1300904608064,0.000143779
1300904668064,0.000144269
1300904728064,0.000143211
1300904788064,0.000143768
1300904848064,0.000144328
1300904908064,0.000142723
1300904968064,0.000144252
1300905028064,0.000143212
1300905088064,0.000143999
1300905148064,0.000143374
1300905208064,0.000144054
1300905268064,0.000143911
1300905328064,0.000144036
1300905388064,0.000143848
1300905448064,0.000142321
1300905508064,0.000142899
1300905568064,0.000142364
1300905628064,0.000143936
1300905688064,0.000142566
1300905748064,0.000142857
1300905808064,0.000143655
1300905868064,0.000142328
1300905928064,0.000143676
1300905988064,0.000143417
1300906048064,0.000144718
1300906108064,0.000143496
1300906168064,0.000143946
1300906228064,0.000143771
1300906288064,0.000143331
1300906348064,0.000144428
1300906408064,0.000144776
1300906468064,0.000141832
1300906528064,0.000143498
1300906588064,0.000143535
1300906648064,0.000143532
1300906708064,0.000142999
1300906768064,0.000143213
1300906828075,0.000142809
1300906888075,0.000143893
1300906948075,0.000141758
1300907008075,0.000142092
1300907068075,0.000143759
1300907128075,0.000143760
1300907188075,0.000143815
1300907248075,0.000143960
1300907308075,0.000143048
1300907368075,0.000143952
1300907428075,0.000142878
1300907488075,0.000143920
1300907548075,0.000143489
1300907608075,0.000142624
1300907668075,0.000144075
1300907728075,0.000141393
1300907788075,0.000143962
1300907848075,0.000143840
1300907908075,0.000143890
1300907968075,0.000142599
1300908028075,0.000142676
1300908088075,0.000143177
1300908148075,0.000143616
1300908208075,0.000142867
1300908268075,0.000144488
1300908328075,0.000143382
1300908388075,0.000143337
1300908448075,0.000143397
1300908508075,0.000143024
1300908568075,0.000142067
1300908628075,0.000141953
1300908688075,0.000140997
1300908748075,0.000142459
1300908808075,0.000144019
1300908868075,0.000142754
1300908928075,0.000143086
1300908988075,0.000142541
1300909048075,0.000142887
1300909108075,0.000143261
1300909168075,0.000142260
1300909228075,0.000143116
1300909288075,0.000142397
1300909348075,0.000142757
1300909408075,0.000144493
1300909468075,0.000143420
1300909528075,0.000143266
1300909588075,0.000143023
1300909648075,0.000145093
1300909708075,0.000141973
1300909768075,0.000143638
1300909828075,0.000143039
1300909888075,0.000144299
1300909948075,0.000142090
1300910008075,0.000143540
1300910068075,0.000142586
1300913428086,0.000144584
1300913488086,0.000143866
1300913548086,0.000143772
1300913608086,0.000144189
1300913668086,0.000142698
1300917028098,0.000143955
1300917088098,0.000144010
1300917148098,0.000144323
1300917208098,0.000143213
1300917268098,0.000143531
1300922008124,0.000144454
1300922068124,0.000143747
1300922128124,0.000144255
1300922188124,0.000143353
1300922248124,0.000145101
1300922308124,0.000144819
1300922368124,0.000144625
1300922428124,0.000144528
1300922488124,0.000144920
1300922548124,0.000145827
1300922608124,0.000145266
1300922668124,0.000144448
1300922728124,0.000144039
1300922788124,0.000144680
1300922848124,0.000144904
1300922908124,0.000144683
1300922968124,0.000145249
1300923028124,0.000145131
1300923088124,0.000144815
1300923148124,0.000144602
1300923208124,0.000144521
1300923268124,0.000145930
1300923328124,0.000144483
1300923388124,0.000144864
1300923448124,0.000144469
1300923508124,0.000143474
1300923568124,0.000145691
1300923628124,0.000144536
1300923688124,0.000144454
1300923748124,0.000143579
1300923808124,0.000144366
1300923868124,0.000143896
1300923928124,0.000145448
1300923988124,0.000144890
1300924048124,0.000145284
1300924108124,0.000145456
1300924168124,0.000146172
1300924228124,0.000145268
1300924288124,0.000145172
1300924348124,0.000144079
1300924408124,0.000145166
1300924468124,0.000144068
